[[{"header":{"parameterUnit":"m.s-1","parameterCategory":1,"la1":30.2991,"la2":30.254,"lo1":-89.0895,"lo2":-89.0444,"dy":0.0017,"dx":0.0017,"nx":28,"ny":28,"refTime":"2025-01-07T03:00:00:Z","depth":0,"parameterNumber":2,"parameterNumberName":"U-component_of_WINDS"},"data":[0,0,0,0,0,0,0,0,0,0,0,0,0,0,0,0,0,0,0,0,0,0,0,0,0,0,0,0,0,0,0,0,0,0,0,0,0,0,0,0,0,0,0,0,0,0,0,0,0,0,0,0,0,0,0,0,0,0,-0.8318,-0.8318,0,-0.8374,-0.8375,-0.8375,-0.8322,-0.832,-0.8318,-0.8316,-0.8377,-0.838,-0.8384,0,0,0,0,0,0,0,0,0,0,0,0,0,-0.8166,-0.8169,-0.8318,-0.8318,-0.8319,-0.8374,-0.8375,-0.8375,-0.8322,-0.832,-0.8317,-0.8315,-0.8376,-0.838,-0.8384,0,0,0,0,0,0,0,0,0,0,0,0,0,-0.8228,-0.817,-0.8317,-0.8299,-0.8298,-0.8374,-0.8375,-0.8376,-0.8323,-0.832,-0.8317,-0.8314,-0.8374,-0.8379,-0.8385,-0.8482,0,0,-0.8401,-0.8404,0,0,0,0,0,0,0,0,-0.8225,-0.8234,-0.8301,-0.83,-0.8299,-0.8338,-0.8343,-0.8412,-0.8324,-0.8314,-0.8316,-0.8312,-0.8367,-0.8372,-0.839,-0.8485,-0.8488,-0.8402,-0.8405,-0.8407,-0.8409,0,0,0,0,0,0,0,-0.8221,-0.8231,-0.834,-0.8302,-0.8301,-0.8289,-0.8294,-0.8356,-0.8358,-0.8314,-0.831,-0.8318,-0.8365,-0.8385,-0.8391,-0.8489,-0.8402,-0.8406,-0.841,-0.8412,-0.8667,-0.867,0,0,0,0,0,0,-0.8218,-0.8228,-0.8338,-0.8342,-0.8253,-0.8294,-0.83,-0.8329,-0.8357,-0.8358,-0.832,-0.8315,-0.8377,-0.8385,-0.8393,-0.851,-0.8407,-0.8412,-0.8416,-0.8663,-0.8668,-0.8671,0,0,0,0,0,0,-0.8215,-0.8228,-0.8336,-0.8284,-0.8296,-0.83,-0.8333,-0.8331,-0.8351,-0.8361,-0.8361,-0.834,-0.8375,-0.8385,-0.846,-0.8511,-0.8415,-0.842,-0.8659,-0.8665,-0.8669,-0.8744,0,0,0,0,0,0,-0.8211,-0.8227,-0.8264,-0.8285,-0.8299,-0.8402,-0.8336,-0.8335,-0.836,-0.8354,-0.838,-0.8381,-0.8373,-0.8453,-0.8466,-0.8517,-0.8424,-0.8655,-0.8662,-0.8668,-0.8737,-0.8751,-0.8763,0,0,0,0,0,-0.8205,-0.8284,-0.8267,-0.828,-0.8346,-0.8405,-0.8413,-0.8402,-0.8364,-0.8402,-0.8408,-0.838,-0.8503,-0.8461,-0.8475,-0.8529,-0.8652,-0.866,-0.8667,-0.8731,-0.8749,-0.8763,0,0,0,0,0,0,-0.8271,-0.8286,-0.8267,-0.8354,-0.8379,-0.8396,-0.8443,-0.8421,-0.8457,-0.845,-0.8435,-0.8441,-0.8521,-0.8532,-0.8484,-0.8625,-0.8571,-0.8582,-0.8615,-0.8631,-0.8644,-0.8641,-0.8429,0,0,0,0,0,-0.8295,-0.8341,-0.8352,-0.8428,-0.8441,-0.844,-0.8466,-0.8454,-0.8479,-0.849,-0.8502,-0.8528,-0.8572,-0.8602,-0.8643,-0.8737,-0.8743,-0.8781,-0.8794,-0.8805,-0.8816,-0.8867,-0.8884,-0.8697,-0.8697,-0.8697,0,0,-0.8346,-0.836,-0.8391,-0.8442,-0.8459,-0.8508,-0.8449,-0.8504,-0.854,-0.8498,-0.857,-0.8579,-0.8607,-0.8693,-0.8731,-0.8704,-0.8868,-0.8815,-0.8824,-0.8829,-0.8877,-0.8895,-0.891,-0.8703,-0.8702,-0.8701,0,0,-0.8465,-0.848,-0.8545,-0.8563,-0.859,-0.8588,-0.8603,-0.8624,-0.8628,-0.8699,-0.8669,-0.8712,-0.8788,-0.881,-0.8831,-0.8955,-0.8931,-0.8969,-0.9039,-0.9089,-0.9103,-0.9116,-0.9162,-0.9179,-0.8979,-0.8979,-0.8979,0,-0.8527,-0.8598,-0.8582,-0.8638,-0.8662,-0.8624,-0.869,-0.8709,-0.8748,-0.8766,-0.8735,-0.8829,-0.8846,-0.8935,-0.8966,-0.8983,-0.9001,-0.8967,-0.9102,-0.9115,-0.9127,-0.9171,-0.9188,-0.8984,-0.8983,-0.8983,-0.8982,0,-0.8673,-0.8723,-0.8772,-0.881,-0.8838,-0.89,-0.8893,-0.8924,-0.8909,-0.8911,-0.8984,-0.9001,-0.9046,-0.9065,-0.9053,-0.9153,-0.9136,-0.9104,-0.9051,-0.915,-0.9191,-0.9207,-0.899,-0.8989,-0.8987,-0.8986,0,0,-0.8837,-0.8863,-0.8882,-0.8898,-0.8924,-0.8963,-0.9021,-0.9063,-0.9091,-0.9118,-0.9169,-0.9233,-0.9203,-0.9227,-0.9215,-0.9259,-0.9358,-0.9221,-0.9222,-0.9247,-0.9471,-0.9497,-0.9516,-0.934,-0.9343,-0.9346,-0.9469,0,-0.8958,-0.9061,-0.9046,-0.9145,-0.9191,-0.9155,-0.9206,-0.9228,-0.923,-0.9271,-0.9273,-0.932,-0.9276,-0.929,-0.9331,-0.9337,-0.9403,-0.9327,-0.9388,-0.9391,-0.9385,-0.9537,-0.9565,-0.9681,-0.9485,-0.9488,-0.9489,0,-0.9114,-0.9146,-0.9249,-0.9266,-0.9285,-0.9332,-0.9369,-0.9407,-0.9431,-0.9429,-0.9455,-0.9435,-0.9495,-0.9438,-0.952,-0.947,-0.9493,-0.9499,-0.9503,-0.9511,-0.9448,-0.9551,-0.9717,-0.9736,-0.9514,-0.9512,-0.951,0,-0.9226,-0.9295,-0.9365,-0.938,-0.9402,-0.9435,-0.9446,-0.9466,-0.9492,-0.9524,-0.9541,-0.958,-0.9602,-0.9633,-0.9624,-0.9583,-0.9709,-0.9651,-0.9711,-0.9711,-0.9742,-0.974,-0.9916,-0.9753,-0.9753,-0.9752,-0.9752,0,-0.9364,-0.9429,-0.9416,-0.946,-0.9531,-0.9513,-0.9585,-0.9591,-0.9609,-0.9654,-0.9624,-0.9666,-0.9651,-0.9693,-0.9687,-0.9757,-0.9766,-0.9768,-0.9766,-0.9772,-0.9772,-0.9789,-0.9782,-0.9757,-0.9756,-0.9755,-0.9754,0,-0.9503,-0.9496,-0.9571,-0.9584,-0.9589,-0.9642,-0.9654,-0.9695,-0.9693,-0.975,-0.9763,-0.9762,-0.9809,-0.9803,-0.9856,-0.9852,-0.9939,-0.9926,-0.9932,-0.993,-0.999,-0.9985,-1.0186,-1.0211,-1.0029,-1.0031,-1.0032,0,-0.9593,-0.9642,-0.966,-0.9687,-0.97,-0.9744,-0.977,-0.9754,-0.9782,-0.9811,-0.985,-0.9894,-0.9929,-1.0007,-1.0011,-1.0052,-1.0041,-1.0108,-1.0047,-1.0052,-1.0044,-1.0043,-1.0048,-1.0121,-1.0123,-1.0125,-1.0126,0,-0.9754,-0.9748,-0.9786,-0.9822,-0.9853,-0.9882,-0.9907,-0.9931,-0.9917,-0.995,-0.9998,-1.0025,-1.0078,-1.0124,-1.0161,-1.0173,-1.0149,-1.0145,-1.0161,-1.017,-1.0171,-1.0173,-0.9967,-1.0141,-1.014,-1.0139,-1.0138,-1.0137,-0.9873,-0.9914,-0.9933,-0.9976,-0.9993,-1.0017,-1.0056,-1.0059,-1.0098,-1.014,-1.0128,-1.0182,-1.0203,-1.0251,-1.0267,-1.0309,-1.0285,-1.0308,-1.0314,-1.0321,-1.0329,-1.0162,-1.0316,-1.0315,-1.0315,-1.0314,-1.0314,0,-1.0034,-1.0043,-1.0083,-1.0118,-1.0152,-1.0123,-1.0149,-1.018,-1.0228,-1.0249,-1.0283,-1.0338,-1.0381,-1.0388,-1.0429,-1.0462,-1.0451,-1.0473,-1.0472,-1.0475,-1.0348,-1.033,-1.0481,-1.0481,-1.0481,-1.0481,-1.0481,-1.048,-1.0121,-1.0191,-1.0186,-1.0264,-1.0273,-1.0325,-1.0343,-1.0365,-1.0381,-1.0444,-1.0479,-1.0482,-1.0498,-1.0539,-1.0577,-1.0578,-1.0595,-1.0622,-1.0619,-1.05,-1.0484,-1.0468,-1.0452,-1.0625,-1.0626,-1.0743,-1.0744,-1.0745]},{"header":{"parameterUnit":"m.s-1","parameterCategory":1,"la1":30.2991,"la2":30.254,"lo1":-89.0895,"lo2":-89.0444,"dy":0.0017,"dx":0.0017,"nx":28,"ny":28,"refTime":"2025-01-07T03:00:00:Z","depth":0,"parameterNumber":3,"parameterNumberName":"V-component_of_WINDS"},"data":[0,0,0,0,0,0,0,0,0,0,0,0,0,0,0,0,0,0,0,0,0,0,0,0,0,0,0,0,0,0,0,0,0,0,0,0,0,0,0,0,0,0,0,0,0,0,0,0,0,0,0,0,0,0,0,0,0,0,-6.4726,-6.4727,0,-6.484,-6.4842,-6.4843,-6.4759,-6.4755,-6.4751,-6.4748,-6.4861,-6.4867,-6.4873,0,0,0,0,0,0,0,0,0,0,0,0,0,-6.4428,-6.4434,-6.4725,-6.4727,-6.4728,-6.484,-6.4842,-6.4843,-6.4759,-6.4755,-6.475,-6.4746,-6.4859,-6.4866,-6.4874,0,0,0,0,0,0,0,0,0,0,0,0,0,-6.4551,-6.4436,-6.4725,-6.47,-6.4699,-6.484,-6.4842,-6.4844,-6.476,-6.4755,-6.4749,-6.4744,-6.4856,-6.4866,-6.4875,-6.5046,0,0,-6.4905,-6.4909,0,0,0,0,0,0,0,0,-6.4544,-6.4562,-6.4702,-6.4702,-6.4701,-6.478,-6.4778,-6.4911,-6.4762,-6.4737,-6.4748,-6.4741,-6.4838,-6.4849,-6.4882,-6.5051,-6.5056,-6.4906,-6.4911,-6.4916,-6.4918,0,0,0,0,0,0,0,-6.4536,-6.4557,-6.4771,-6.4704,-6.4704,-6.4681,-6.4693,-6.4803,-6.4817,-6.4739,-6.4733,-6.4748,-6.4836,-6.4873,-6.4884,-6.5058,-6.4905,-6.4914,-6.492,-6.4924,-6.537,-6.5376,0,0,0,0,0,0,-6.453,-6.455,-6.4767,-6.4774,-6.4608,-6.4691,-6.4704,-6.476,-6.4816,-6.4819,-6.4752,-6.4743,-6.4859,-6.4873,-6.4888,-6.5091,-6.4916,-6.4925,-6.493,-6.5364,-6.5372,-6.5378,0,0,0,0,0,0,-6.4524,-6.4551,-6.4762,-6.4661,-6.4686,-6.4702,-6.4766,-6.4765,-6.4802,-6.4826,-6.4827,-6.4788,-6.4856,-6.4874,-6.5007,-6.5093,-6.4929,-6.4938,-6.5357,-6.5367,-6.5375,-6.5498,0,0,0,0,0,0,-6.4516,-6.4549,-6.4615,-6.4663,-6.4692,-6.4882,-6.4771,-6.4771,-6.4819,-6.4809,-6.486,-6.4863,-6.4853,-6.4993,-6.5017,-6.5104,-6.4945,-6.535,-6.5361,-6.5372,-6.5486,-6.551,-6.5531,0,0,0,0,0,-6.4506,-6.4645,-6.4619,-6.4646,-6.4775,-6.4887,-6.4903,-6.489,-6.4827,-6.4893,-6.4908,-6.4861,-6.508,-6.5008,-6.5033,-6.5125,-6.5344,-6.5358,-6.5371,-6.5477,-6.5506,-6.553,0,0,0,0,0,0,-6.4605,-6.465,-6.4623,-6.4781,-6.4831,-6.4873,-6.4955,-6.4922,-6.4989,-6.4976,-6.4956,-6.4968,-6.5107,-6.5129,-6.5047,-6.5292,-6.5202,-6.5221,-6.5273,-6.5301,-6.5323,-6.5314,-6.4953,0,0,0,0,0,-6.4646,-6.4735,-6.4768,-6.4905,-6.4932,-6.494,-6.4988,-6.4973,-6.5023,-6.5044,-6.5069,-6.5118,-6.5197,-6.525,-6.5325,-6.5489,-6.5498,-6.5564,-6.5586,-6.5604,-6.5621,-6.5708,-6.5738,-6.5423,-6.5423,-6.5423,0,0,-6.4731,-6.4766,-6.4823,-6.4926,-6.4963,-6.5053,-6.4958,-6.5058,-6.5124,-6.5058,-6.5185,-6.5206,-6.5258,-6.5408,-6.5474,-6.543,-6.571,-6.5622,-6.5636,-6.5643,-6.5725,-6.5755,-6.5782,-6.5432,-6.5431,-6.5429,0,0,-6.4931,-6.4967,-6.5085,-6.5124,-6.5181,-6.5185,-6.5214,-6.526,-6.5272,-6.5399,-6.5351,-6.5429,-6.5567,-6.5607,-6.5645,-6.5859,-6.5818,-6.5884,-6.5999,-6.6084,-6.6109,-6.6131,-6.6207,-6.6234,-6.5901,-6.5901,-6.5901,0,-6.5028,-6.5164,-6.5149,-6.5253,-6.5298,-6.5245,-6.5362,-6.54,-6.5479,-6.5511,-6.546,-6.5632,-6.5664,-6.5821,-6.5873,-6.5906,-6.5936,-6.5878,-6.6107,-6.6129,-6.6149,-6.6221,-6.6249,-6.5908,-6.5908,-6.5907,-6.5906,0,-6.528,-6.5375,-6.5463,-6.5541,-6.5597,-6.5707,-6.5707,-6.5765,-6.5746,-6.5755,-6.5884,-6.5921,-6.6001,-6.6038,-6.6019,-6.6192,-6.6162,-6.611,-6.6019,-6.6187,-6.6254,-6.6281,-6.5919,-6.5917,-6.5914,-6.5912,0,0,-6.5547,-6.5615,-6.5648,-6.5682,-6.5741,-6.5813,-6.592,-6.6001,-6.605,-6.6106,-6.6193,-6.6311,-6.6263,-6.6307,-6.6292,-6.6367,-6.6533,-6.6305,-6.6306,-6.6345,-6.6724,-6.6763,-6.6795,-6.6506,-6.6511,-6.6515,-6.6719,0,-6.5749,-6.5937,-6.5926,-6.6102,-6.6189,-6.6138,-6.6231,-6.6276,-6.6287,-6.636,-6.6371,-6.6455,-6.6386,-6.6411,-6.6483,-6.6498,-6.6608,-6.6483,-6.6586,-6.659,-6.6574,-6.683,-6.6871,-6.7062,-6.6745,-6.675,-6.6753,0,-6.6011,-6.6077,-6.6262,-6.6307,-6.6343,-6.6427,-6.6499,-6.6571,-6.662,-6.6622,-6.6671,-6.6644,-6.6749,-6.6656,-6.6801,-6.6715,-6.6757,-6.677,-6.6777,-6.6786,-6.6681,-6.6845,-6.7122,-6.7151,-6.6794,-6.6791,-6.6788,0,-6.6186,-6.632,-6.6448,-6.6479,-6.6536,-6.6596,-6.6622,-6.6666,-6.6714,-6.6777,-6.6808,-6.6881,-6.6921,-6.6978,-6.697,-6.6903,-6.7117,-6.7023,-6.7121,-6.7121,-6.7168,-6.7165,-6.7455,-6.7196,-6.7195,-6.7195,-6.7194,0,-6.6413,-6.6528,-6.6528,-6.6606,-6.6733,-6.6718,-6.6843,-6.6862,-6.6902,-6.6982,-6.6942,-6.7017,-6.7003,-6.7078,-6.7072,-6.7192,-6.7211,-6.7214,-6.7211,-6.7218,-6.7217,-6.7244,-6.7231,-6.7202,-6.7201,-6.7199,-6.7198,0,-6.6629,-6.6634,-6.677,-6.6812,-6.6826,-6.6917,-6.6952,-6.7025,-6.7033,-6.7135,-6.7157,-6.7169,-6.7255,-6.7253,-6.735,-6.7346,-6.7493,-6.7475,-6.7477,-6.7473,-6.757,-6.7561,-6.7888,-6.793,-6.7644,-6.7646,-6.7649,0,-6.6774,-6.6861,-6.6913,-6.6965,-6.6995,-6.7078,-6.7128,-6.7116,-6.7169,-6.7232,-6.7297,-6.738,-6.7445,-6.7584,-6.76,-6.7674,-6.7657,-6.7766,-6.7667,-6.7671,-6.7657,-6.7652,-6.766,-6.7785,-6.7789,-6.7791,-6.7793,0,-6.703,-6.7027,-6.7102,-6.7177,-6.7238,-6.7296,-6.7349,-6.7393,-6.7387,-6.7448,-6.7536,-6.7587,-6.7687,-6.7768,-6.7839,-6.7863,-6.7828,-6.7824,-6.7851,-6.7858,-6.7855,-6.7857,-6.7529,-6.7817,-6.7814,-6.7813,-6.7811,-6.781,-6.7214,-6.7289,-6.7337,-6.7421,-6.746,-6.751,-6.7581,-6.7598,-6.7672,-6.7753,-6.7741,-6.7839,-6.7885,-6.7977,-6.8007,-6.8082,-6.8044,-6.8082,-6.8091,-6.8101,-6.8112,-6.7844,-6.8095,-6.8095,-6.8094,-6.8093,-6.8093,0,-6.7467,-6.7495,-6.7572,-6.7649,-6.7714,-6.7676,-6.7733,-6.7789,-6.7877,-6.7923,-6.7988,-6.8089,-6.8168,-6.819,-6.8265,-6.8321,-6.8306,-6.8341,-6.8337,-6.8343,-6.8142,-6.8112,-6.8352,-6.8352,-6.8352,-6.8352,-6.8352,-6.8352,-6.7606,-6.773,-6.7734,-6.7877,-6.7904,-6.8001,-6.8037,-6.8082,-6.8119,-6.8234,-6.83,-6.8314,-6.835,-6.8428,-6.8498,-6.8502,-6.8531,-6.8573,-6.8571,-6.8383,-6.8357,-6.8332,-6.8303,-6.858,-6.858,-6.8764,-6.8766,-6.8767]}]]